STARLINK-34800, 65361

Orbit data source: Space-Track

STARLINK-34800, 65361 is a payload satellite owned by SpaceX/Seattle (US) in LEO that was launched on Thu, 28 Aug 2025 UTC via an FALCON 9 launch vehicle from the Air Force Eastern Test Range (AFETR). Payload-class satellites include a variety of spacecraft equipped with specific instruments for various scientific and technological missions. These include communications satellites like Starlink; space stations such as the ISS; scientific satellites like the Hubble; Earth observation satellites from companies like Planet Labs, Umbra, and HawkEye 360; GPS; miniature CubeSats for education and research; and military/defense satellites.

Loading next visibility...
Identifier
65361, 2025-190L
Orbit
LEO
Country
Flag of USUS
Related business
Manufacturer
SpaceX/Seattle
Mission
Operational Commercial Communications
Bus & Motor
STARLINK V2MO, Unknown motor
Mass
575 kg wet, ~530 kg dry
Launch date (UTC)
2025-08-28 (10 months ago)
Launch vehicle
FALCON 9
Launch site
Air Force Eastern Test Range (AFETR)
Object type
Payload
Rocket body
Debris
Shape & HBR
Box + 2 Pan, 17.7 m
Radar Cross Section
36.964 m², Large (>1 m²)

Expand to show TLE details & history
Last TLE update: 11 hours ago

TLE from 11 hours ago
0 STARLINK-34800
1 65361U 25190L   26171.38793985  .00022948  00000-0  78421-3 0  9997
2 65361  53.1605  50.8050 0001106 100.1903 259.9222 15.30213902 45010
Epoch: 2026-06-20T09:18Z
TLE epoch observation values (Epoch: 2026-06-20T09:18:38.003Z)
Latitude
-0.00004°
Longitude
2.54334°
Altitude
476.206 km
Speed
7.629 km/s
True Right ascension
03h 23m 13s
True Declination
0° 00' 00"
Sunlit
Object was in daylight at epoch
Visualization orbit readout
Latitude
Unknown
Longitude
Unknown
Altitude
Unknown
Speed
Unknown
Apparent Right ascension
Unknown
Apparent Declination
Unknown
Sunlit
N/A
Visualization observer readout
Local Sidereal Time
07:23:46
Azimuth
Unknown
Elevation
Unknown
Doppler factor
Unknown
Orbital elements
Apogee altitude
476.188 km
Perigee altitude
474.672 km
Semi-major axis
6,853.567 km
Eccentricity
0.00011
Inclination
53.1605°
RAAN
50.805°
Arg. of periapsis
100.1903°
True anomaly
259.90972°
Mean anomaly
259.9222°
Eccentric anomaly
259.91596°
Mean motion
3.82532 °/min
Orbital period
94.11 mins
BSTAR
0.00078421
Loading maneuver chart data...
Computing Atmospheric mass density...
Loading historical data...
Loading historical data...
Loading historical data...
Loading historical data...
Loading historical data...
Loading historical data...
Loading historical data...

Documentation

Showing up to 5 results
|